Regional Weather Roundup
Issued by NWS

Home | Current Version | Previous Version | Graphics & Text | Print | Product List | Glossary On
Versions: 1 2 3 4 5 6 7 8 9 10 11 12 13 14 15 16 17 18 19 20 21 22 23 24 25 26 27 28 29 30 31 32 33 34 35 36 37 38 39 40 41 42 43 44 45 46 47 48 49 50
000
ASUS43 KOAX 012102
RWRNE

WEATHER ROUNDUP FOR NEBRASKA
NATIONAL WEATHER SERVICE OMAHA NE
400 PM CDT SUN MAY 01 2016

NOTES: SATELLITE DATA IS BEING USED TO AUGMENT CLOUD COVER ABOVE
       12000 FEET.
       "FAIR" INDICATES FEW OR NO CLOUDS BELOW 12,000 FEET WITH NO
       SIGNIFICANT WEATHER AND/OR OBSTRUCTIONS TO VISIBILITY.

  * THESE STATIONS DO NOT REPORT WEATHER SUCH AS RAIN...SNOW OR FOG.

NEZ001>004-019>022-054>056-012200-
NEBRASKA PANHANDLE

CITY           SKY/WX    TMP DP  RH WIND       PRES   REMARKS
SCOTTSBLUFF    PTSUNNY   51  29  42 N15G22    30.27F
ALLIANCE       SUNNY     45  29  53 NW8       30.24F
CHADRON        MOSUNNY   56  31  38 N7G17     30.26F
KIMBALL        SUNNY     40  28  60 N9        30.26F WCI  35
SIDNEY         SUNNY     44  27  51 N12       30.26F
$$

NEZ057>060-069>072-079>082-012200-
SOUTHWEST NEBRASKA

CITY           SKY/WX    TMP DP  RH WIND       PRES   REMARKS
NORTH PLATTE   PTSUNNY   51  35  54 N13G29    30.19F
IMPERIAL       MOSUNNY   52  34  50 N25G33    30.21F
LEXINGTON      CLOUDY    50  38  64 NE12      30.18F
MCCOOK         MOSUNNY   56  36  47 N23G30    30.16F
OGALLALA       PTSUNNY   50  31  48 N18G26    30.25F
$$

NEZ005>010-023>029-035>040-094-012200-
NORTH CENTRAL NEBRASKA

CITY           SKY/WX    TMP DP  RH WIND       PRES   REMARKS
VALENTINE      PTSUNNY   55  30  38 N13G22    30.23F
AINSWORTH      MOSUNNY   55  33  44 N18G26    30.22S
BROKEN BOW     CLOUDY    53  38  56 NE14      30.17F
O`NEILL        PTSUNNY   53  37  54 N7        30.19F
ORD            PTSUNNY   53  39  59 N17       30.18F
THEDFORD       PTSUNNY   53  33  47 N17G24    30.22F
$$

NEZ041-046>049-061>064-073>077-083>087-012200-
SOUTH CENTRAL NEBRASKA

CITY           SKY/WX    TMP DP  RH WIND       PRES   REMARKS
GRAND ISLAND   CLOUDY    45  39  79 N18       30.18F
AURORA         CLOUDY    47  42  83 N16       30.17F
HASTINGS       CLOUDY    46  39  76 N17       30.16F
HEBRON         CLOUDY    47  41  78 N14G24    30.13F
HOLDREGE       PTSUNNY   50  41  72 N25       30.15F
KEARNEY *      CLOUDY    48  39  71 N18G26    30.17F
YORK           CLOUDY    46  41  81 N14G21    30.17S
$$

NEZ011>018-030>034-042>045-012200-
NORTHEAST NEBRASKA

CITY           SKY/WX    TMP DP  RH WIND       PRES   REMARKS
NORFOLK        CLOUDY    50  40  68 N17       30.16S
ALBION         CLOUDY    49  41  72 N14       30.18S
BLAIR          CLOUDY    47  43  87 N10G16    30.11F
COLUMBUS *     CLOUDY    48  37  66 N12G18    30.17S
FREMONT        CLOUDY    47  41  77 N10G22    30.14S
TEKAMAH        CLOUDY    49  43  80 N18G26    30.14S
WAYNE          CLOUDY    52  43  71 N16       30.16F
$$

NEZ050>053-065>068-078-088>093-012200-
SOUTHEAST NEBRASKA

CITY           SKY/WX    TMP DP  RH WIND       PRES   REMARKS
LINCOLN        CLOUDY    48  41  76 N16G24    30.15S
OMAHA EPPLEY   CLOUDY    49  43  80 N13       30.11F
BEATRICE       CLOUDY    47  42  83 N16       30.13S
FALLS CITY     CLOUDY    51  44  77 N9        30.08R
NEBRASKA CITY  CLOUDY    48  46  93 N15G23    30.09S
PLATTSMOUTH    CLOUDY    49  43  79 N14G20    30.09F
$$

NEZ044-045-051>053-067-012200-
OMAHA AREA

CITY           SKY/WX    TMP DP  RH WIND       PRES   REMARKS
OMAHA EPPLEY   CLOUDY    49  43  80 N13       30.11F
BLAIR          CLOUDY    47  43  87 N10G16    30.11F
FREMONT        CLOUDY    47  41  77 N10G22    30.14S
MILLARD        CLOUDY    49  42  79 N7        30.12S
OFFUTT AFB     CLOUDY    49  43  80 N12G18    30.10S
PLATTSMOUTH    CLOUDY    49  43  79 N14G20    30.09F
WAHOO          CLOUDY    49  43  81 N17       30.13S
$$




USA.gov is the U.S. government's official web portal to all federal, state and local government web resources and services.